Home   Weather   Porto Acre   Past weeks

Flag for Brazil Past Weather in Porto Acre, Acre, Brazil — Yesterday and Last 2 Weeks

Now
88 °F

Partly sunny.


Feels Like: 94 °F
Forecast: 74 / 85 °F
Wind: 7 mph from Northwest

Location: Rio Branco Airport

Current Time: Apr 26, 2017 at 1:09:12 pm

Latest Report: Apr 26, 2017 at 12:00 pm


Visibility: N/A

Pressure: 29.89 "Hg

Humidity: 59%

Dew Point: 72 °F

Location of Porto AcreLocation

Past Weather in Porto Acre — Graph

°F

Porto Acre Temperature Yesterday

Maximum temperature yesterday: 88 °F (at 11:00 am)
Minimum temperature yesterday: 73 °F (at 3:00 am)
Average temperature yesterday: 79 °F

High & Low Weather Summary for the Past Weeks

 TemperatureHumidityPressure
High90 °F (Apr 21, 2:00 pm)94% (Apr 19, 3:20 am)30.01 "Hg (Apr 19, 3:20 am)
Low70 °F (Apr 19, 3:20 am)55% (Apr 19, 1:00 pm)29.77 "Hg (Apr 19, 3:00 pm)
Average77 °F82%29.88 "Hg
* Reported Apr 11 12:00 pm — Apr 26 12:00 pm, Porto Acre, Weather by CustomWeather, © 2017

Note: Actual official high and low records may vary slightly from our data, if they occured in-between our weather recording intervals... More about our weather records

Advertising

Porto Acre Weather History for the Previous 24 Hours

Scroll right to see more
 ConditionsComfort  
Time TempWeatherWind HumidityBarometerVisibility
12:00 pm
Wed, Apr 26
88 °FPartly sunny.7 mph59%29.89 "HgN/A
11:00 am84 °FScattered clouds.5 mph66%29.92 "HgN/A
10:00 am84 °FScattered clouds.6 mph62%29.92 "HgN/A
9:00 am82 °FScattered clouds.3 mph70%29.92 "HgN/A
8:20 am81 °FBroken clouds.3 mph74%29.92 "HgN/A
8:00 am79 °FPartly sunny.2 mph84%29.92 "HgN/A
7:00 am75 °FPartly sunny.2 mph89%29.89 "HgN/A
6:00 am75 °FScattered clouds.5 mph89%29.86 "HgN/A
5:00 am73 °FPassing clouds.3 mph94%29.86 "HgN/A
4:00 am75 °FPassing clouds.5 mph89%29.83 "Hg4 mi
3:00 am75 °FPassing clouds.7 mph89%29.80 "Hg4 mi
2:00 am75 °FClear.10 mph83%29.80 "Hg4 mi
1:00 am75 °FPassing clouds.6 mph89%29.83 "Hg4 mi
12:00 am75 °FFog.3 mph89%29.83 "Hg3 mi
11:00 pm
Tue, Apr 25
75 °FPassing clouds.7 mph89%29.83 "HgN/A
10:00 pm75 °FPassing clouds.7 mph89%29.86 "HgN/A
9:00 pm75 °FPassing clouds.5 mph89%29.86 "HgN/A
8:00 pm77 °FPassing clouds.3 mph83%29.86 "HgN/A
7:00 pm77 °FPartly cloudy.3 mph79%29.83 "HgN/A
6:00 pm77 °FThunderstorms. Partly cloudy.6 mph83%N/A5 mi
5:00 pm81 °FBroken clouds.5 mph79%29.77 "HgN/A
4:00 pm81 °FScattered showers. Broken clouds.6 mph79%N/AN/A
3:00 pm82 °FScattered showers. Partly sunny.5 mph70%N/AN/A
2:00 pm84 °FScattered showers. Broken clouds.9 mph66%N/AN/A
1:00 pm84 °FBroken clouds.7 mph66%29.80 "HgN/A
Weather by CustomWeather, © 2017

See weather overviewHow to use our weather pages